KAC446 OMDB-OOMS

Flight info

Callsign KAC446
Flight time 0h 38m
Altitude 25000
Route ANVIX L223 TARDI N629 MUSUK T511 MCT
Aircraft A339/H-SADE1E2E3GHIJ3J5M1P2RWXY/LB2D1

Departure

Time 2026-04-23 22:28
Airport Dubai International Airport (OMDB)

Arrival

Time 2026-04-23 23:06
Airport Muscat International Airport (OOMS)
Time Latitude Longitude Altitude Speed Heading
2026-04-23 21:50 25.24957 55.36144 35 ft 0 kts 211°
2026-04-23 22:12 25.24958 55.36144 35 ft 1 kts 211°
2026-04-23 22:13 25.24970 55.36153 35 ft 2 kts 211°
2026-04-23 22:13 25.24983 55.36161 35 ft 2 kts 211°
2026-04-23 22:13 25.24996 55.36170 35 ft 2 kts 211°
2026-04-23 22:13 25.25009 55.36179 36 ft 2 kts 211°
2026-04-23 22:14 25.25022 55.36187 37 ft 2 kts 211°
2026-04-23 22:14 25.25033 55.36197 38 ft 2 kts 245°
2026-04-23 22:14 25.25036 55.36213 38 ft 2 kts 281°
2026-04-23 22:14 25.25033 55.36223 38 ft 1 kts 302°
2026-04-23 22:15 25.25031 55.36225 37 ft 0 kts 301°
2026-04-23 22:17 25.25033 55.36221 38 ft 1 kts 301°
2026-04-23 22:17 25.25050 55.36191 39 ft 7 kts 301°
2026-04-23 22:17 25.25089 55.36119 38 ft 15 kts 301°
2026-04-23 22:18 25.25160 55.35990 35 ft 22 kts 302°
2026-04-23 22:18 25.25240 55.35848 39 ft 20 kts 302°
2026-04-23 22:18 25.25315 55.35712 37 ft 21 kts 301°
2026-04-23 22:18 25.25396 55.35567 35 ft 22 kts 301°
2026-04-23 22:19 25.25476 55.35422 35 ft 21 kts 301°
2026-04-23 22:19 25.25554 55.35283 36 ft 20 kts 302°
2026-04-23 22:19 25.25618 55.35173 37 ft 10 kts 317°
2026-04-23 22:19 25.25690 55.35171 38 ft 11 kts 23°
2026-04-23 22:20 25.25761 55.35215 39 ft 11 kts 29°
2026-04-23 22:20 25.25838 55.35264 38 ft 13 kts 32°
2026-04-23 22:20 25.25903 55.35310 38 ft 4 kts 32°
2026-04-23 22:20 25.25912 55.35316 38 ft 0 kts 32°
2026-04-23 22:21 25.25942 55.35339 38 ft 9 kts 40°
2026-04-23 22:22 25.25991 55.35427 40 ft 16 kts 77°
2026-04-23 22:22 25.25966 55.35574 41 ft 23 kts 118°
2026-04-23 22:22 25.25877 55.35737 43 ft 24 kts 122°
2026-04-23 22:22 25.25790 55.35890 44 ft 23 kts 121°
2026-04-23 22:23 25.25707 55.36042 45 ft 22 kts 121°
2026-04-23 22:23 25.25631 55.36182 48 ft 20 kts 120°
2026-04-23 22:23 25.25555 55.36318 48 ft 21 kts 121°
2026-04-23 22:23 25.25474 55.36462 48 ft 22 kts 122°
2026-04-23 22:24 25.25392 55.36610 50 ft 23 kts 121°
2026-04-23 22:24 25.25307 55.36766 51 ft 23 kts 120°
2026-04-23 22:24 25.25219 55.36923 53 ft 24 kts 121°
2026-04-23 22:24 25.25129 55.37083 54 ft 25 kts 121°
2026-04-23 22:25 25.25035 55.37252 54 ft 26 kts 121°
2026-04-23 22:25 25.24940 55.37425 56 ft 26 kts 120°
2026-04-23 22:25 25.24847 55.37593 57 ft 25 kts 120°
2026-04-23 22:25 25.24759 55.37755 57 ft 24 kts 120°
2026-04-23 22:26 25.24702 55.37855 58 ft 12 kts 122°
2026-04-23 22:26 25.24674 55.37930 59 ft 9 kts 85°
2026-04-23 22:26 25.24720 55.37986 60 ft 10 kts 33°
2026-04-23 22:26 25.24785 55.38021 60 ft 10 kts 357°
2026-04-23 22:27 25.24854 55.37945 59 ft 27 kts 300°
2026-04-23 22:27 25.25088 55.37523 55 ft 99 kts 302°
2026-04-23 22:27 25.25560 55.36671 52 ft 156 kts 302°
2026-04-23 22:27 25.26186 55.35551 378 ft 177 kts 303°
2026-04-23 22:28 25.26803 55.34431 1123 ft 169 kts 304°
2026-04-23 22:28 25.27402 55.33334 1767 ft 170 kts 305°
2026-04-23 22:28 25.28035 55.32198 2180 ft 181 kts 305°
2026-04-23 22:28 25.28728 55.30963 2487 ft 198 kts 304°
2026-04-23 22:29 25.29268 55.29484 2797 ft 221 kts 275°
2026-04-23 22:29 25.28946 55.27764 3185 ft 241 kts 245°
2026-04-23 22:29 25.28189 55.26076 3837 ft 246 kts 244°
2026-04-23 22:29 25.27443 55.24408 4649 ft 244 kts 244°
2026-04-23 22:30 25.26716 55.22747 5495 ft 240 kts 244°
2026-04-23 22:30 25.26012 55.21108 6242 ft 237 kts 244°
2026-04-23 22:30 25.25306 55.19458 6821 ft 239 kts 244°
2026-04-23 22:30 25.24462 55.17905 7512 ft 240 kts 225°
2026-04-23 22:31 25.23055 55.16921 8239 ft 243 kts 199°
2026-04-23 22:31 25.21358 55.16729 8795 ft 255 kts 179°
2026-04-23 22:31 25.19576 55.17043 9464 ft 265 kts 162°
2026-04-23 22:31 25.18043 55.18181 10160 ft 277 kts 136°
2026-04-23 22:32 25.16961 55.20006 10575 ft 297 kts 121°
2026-04-23 22:32 25.15994 55.22084 11066 ft 310 kts 120°
2026-04-23 22:32 25.15006 55.24231 11763 ft 314 kts 120°
2026-04-23 22:32 25.14009 55.26357 12495 ft 317 kts 120°
2026-04-23 22:33 25.12975 55.28527 13219 ft 321 kts 120°
2026-04-23 22:33 25.11936 55.30698 13895 ft 326 kts 120°
2026-04-23 22:33 25.10871 55.32928 14580 ft 331 kts 118°
2026-04-23 22:33 25.09883 55.35235 15268 ft 336 kts 116°
2026-04-23 22:34 25.08920 55.37572 15936 ft 341 kts 115°
2026-04-23 22:34 25.07938 55.39968 16625 ft 345 kts 115°
2026-04-23 22:34 25.06950 55.42394 17298 ft 350 kts 114°
2026-04-23 22:34 25.05987 55.44878 17695 ft 364 kts 113°
2026-04-23 22:35 25.04978 55.47524 17994 ft 382 kts 113°
2026-04-23 22:35 25.03934 55.50260 18276 ft 398 kts 113°
2026-04-23 22:35 25.02818 55.53143 18558 ft 415 kts 114°
2026-04-23 22:35 25.01531 55.56063 18828 ft 430 kts 118°
2026-04-23 22:36 25.00040 55.58957 19165 ft 443 kts 121°
2026-04-23 22:36 24.98466 55.61877 19729 ft 449 kts 121°
2026-04-23 22:36 24.96860 55.64837 20366 ft 453 kts 121°
2026-04-23 22:36 24.95237 55.67827 21007 ft 456 kts 122°
2026-04-23 22:37 24.93509 55.70771 21608 ft 459 kts 126°
2026-04-23 22:37 24.91642 55.73640 22200 ft 462 kts 127°
2026-04-23 22:37 24.89744 55.76504 22770 ft 466 kts 127°
2026-04-23 22:37 24.87832 55.79378 23506 ft 465 kts 127°
2026-04-23 22:38 24.85917 55.82261 24203 ft 465 kts 127°
2026-04-23 22:38 24.84014 55.85124 24684 ft 469 kts 127°
2026-04-23 22:38 24.82061 55.88028 24890 ft 471 kts 128°
2026-04-23 22:38 24.80058 55.90920 24896 ft 478 kts 130°
2026-04-23 22:39 24.77915 55.93701 24903 ft 479 kts 133°
2026-04-23 22:39 24.75629 55.96346 24916 ft 479 kts 136°
2026-04-23 22:39 24.73178 55.98911 24928 ft 478 kts 138°
2026-04-23 22:39 24.70740 56.01417 24934 ft 478 kts 138°
2026-04-23 22:40 24.68324 56.03895 24934 ft 478 kts 138°
2026-04-23 22:40 24.65885 56.06402 24932 ft 477 kts 138°
2026-04-23 22:40 24.61034 56.11396 24929 ft 478 kts 138°
2026-04-23 22:41 24.58606 56.13909 24931 ft 478 kts 137°
2026-04-23 22:41 24.56281 56.16524 24782 ft 479 kts 134°
2026-04-23 22:41 24.54074 56.19267 24762 ft 480 kts 132°
2026-04-23 22:41 24.51893 56.22042 24861 ft 481 kts 132°
2026-04-23 22:42 24.49719 56.24818 24925 ft 480 kts 132°
2026-04-23 22:42 24.47541 56.27600 24824 ft 479 kts 132°
2026-04-23 22:42 24.45366 56.30373 24787 ft 478 kts 132°
2026-04-23 22:42 24.43220 56.33107 24818 ft 477 kts 132°
2026-04-23 22:43 24.41040 56.35883 24866 ft 477 kts 132°
2026-04-23 22:43 24.38865 56.38650 24902 ft 477 kts 132°
2026-04-23 22:43 24.36695 56.41408 24910 ft 478 kts 132°
2026-04-23 22:43 24.34550 56.44132 24831 ft 478 kts 132°
2026-04-23 22:44 24.32352 56.46919 24426 ft 478 kts 132°
2026-04-23 22:44 24.30233 56.49657 23898 ft 476 kts 130°
2026-04-23 22:44 24.28208 56.52553 23336 ft 473 kts 127°
2026-04-23 22:44 24.26294 56.55422 22750 ft 472 kts 127°
2026-04-23 22:45 24.24375 56.58317 22214 ft 468 kts 127°
2026-04-23 22:45 24.22477 56.61187 21678 ft 463 kts 127°
2026-04-23 22:45 24.20592 56.64031 21167 ft 457 kts 127°
2026-04-23 22:45 24.18736 56.66828 20686 ft 451 kts 127°
2026-04-23 22:46 24.16911 56.69577 20220 ft 445 kts 127°
2026-04-23 22:46 24.15104 56.72294 19769 ft 439 kts 127°
2026-04-23 22:46 24.13316 56.74982 19321 ft 434 kts 127°
2026-04-23 22:46 24.11541 56.77649 18873 ft 430 kts 127°
2026-04-23 22:47 24.09806 56.80255 18433 ft 426 kts 127°
2026-04-23 22:47 24.08075 56.82854 17996 ft 422 kts 127°
2026-04-23 22:47 24.06355 56.85434 17558 ft 418 kts 127°
2026-04-23 22:47 24.04647 56.87993 17121 ft 415 kts 127°
2026-04-23 22:48 24.02934 56.90555 16680 ft 411 kts 127°
2026-04-23 22:48 24.01267 56.93045 16250 ft 408 kts 127°
2026-04-23 22:48 23.99594 56.95540 15822 ft 404 kts 127°
2026-04-23 22:48 23.97942 56.98003 15399 ft 401 kts 127°
2026-04-23 22:49 23.96296 57.00458 14980 ft 398 kts 127°
2026-04-23 22:49 23.94665 57.02891 14557 ft 394 kts 127°
2026-04-23 22:49 23.93051 57.05299 14146 ft 390 kts 126°
2026-04-23 22:49 23.91479 57.07648 13752 ft 387 kts 126°
2026-04-23 22:50 23.89885 57.10027 13356 ft 384 kts 126°
2026-04-23 22:50 23.88306 57.12380 12972 ft 381 kts 126°
2026-04-23 22:50 23.86754 57.14690 12579 ft 378 kts 126°
2026-04-23 22:50 23.85201 57.17000 12169 ft 376 kts 126°
2026-04-23 22:51 23.83658 57.19298 11753 ft 373 kts 127°
2026-04-23 22:51 23.82121 57.21587 11329 ft 371 kts 127°
2026-04-23 22:51 23.80596 57.23854 10909 ft 369 kts 127°
2026-04-23 22:51 23.79098 57.26082 10616 ft 362 kts 127°
2026-04-23 22:52 23.77634 57.28258 10513 ft 349 kts 127°
2026-04-23 22:52 23.76219 57.30357 10385 ft 337 kts 127°
2026-04-23 22:52 23.74857 57.32379 10254 ft 325 kts 126°
2026-04-23 22:52 23.73542 57.34331 10137 ft 313 kts 126°
2026-04-23 22:53 23.72438 57.36330 10031 ft 303 kts 114°
2026-04-23 22:53 23.71751 57.38466 9967 ft 293 kts 103°
2026-04-23 22:53 23.71309 57.40612 9904 ft 289 kts 101°
2026-04-23 22:53 23.70905 57.42752 9727 ft 290 kts 101°
2026-04-23 22:54 23.70499 57.44909 9371 ft 292 kts 101°
2026-04-23 22:54 23.70077 57.47095 9028 ft 295 kts 101°
2026-04-23 22:54 23.69666 57.49270 8703 ft 296 kts 102°
2026-04-23 22:54 23.69237 57.51472 8384 ft 297 kts 102°
2026-04-23 22:55 23.68797 57.53678 8066 ft 298 kts 101°
2026-04-23 22:55 23.68363 57.55901 7784 ft 298 kts 101°
2026-04-23 22:55 23.67940 57.58081 7529 ft 298 kts 101°
2026-04-23 22:55 23.67509 57.60293 7275 ft 297 kts 102°
2026-04-23 22:56 23.67077 57.62498 7024 ft 296 kts 102°
2026-04-23 22:56 23.66646 57.64688 6728 ft 292 kts 102°
2026-04-23 22:56 23.66219 57.66845 6445 ft 288 kts 102°
2026-04-23 22:56 23.65801 57.68955 6176 ft 284 kts 102°
2026-04-23 22:57 23.65385 57.71047 5896 ft 282 kts 102°
2026-04-23 22:57 23.64976 57.73118 5614 ft 281 kts 102°
2026-04-23 22:57 23.64565 57.75201 5346 ft 278 kts 102°
2026-04-23 22:57 23.64156 57.77261 5093 ft 276 kts 102°
2026-04-23 22:58 23.63755 57.79274 4849 ft 274 kts 102°
2026-04-23 22:58 23.63351 57.81305 4616 ft 271 kts 102°
2026-04-23 22:58 23.62954 57.83308 4392 ft 269 kts 102°
2026-04-23 22:58 23.62559 57.85300 4171 ft 267 kts 102°
2026-04-23 22:59 23.62167 57.87272 3953 ft 265 kts 102°
2026-04-23 22:59 23.61777 57.89233 3739 ft 263 kts 102°
2026-04-23 22:59 23.61391 57.91176 3523 ft 261 kts 102°
2026-04-23 22:59 23.61012 57.93084 3308 ft 260 kts 102°
2026-04-23 23:00 23.60629 57.95012 3090 ft 259 kts 102°
2026-04-23 23:00 23.60245 57.96934 2866 ft 258 kts 102°
2026-04-23 23:00 23.59868 57.98818 2734 ft 253 kts 102°
2026-04-23 23:00 23.59494 58.00662 2731 ft 243 kts 104°
2026-04-23 23:01 23.59094 58.02419 2726 ft 231 kts 101°
2026-04-23 23:01 23.58902 58.04107 2713 ft 220 kts 91°
2026-04-23 23:01 23.58945 58.05721 2696 ft 209 kts 85°
2026-04-23 23:01 23.59084 58.07270 2689 ft 197 kts 83°
2026-04-23 23:02 23.59223 58.08713 2687 ft 191 kts 84°
2026-04-23 23:02 23.59354 58.10161 2668 ft 189 kts 84°
2026-04-23 23:02 23.59470 58.11562 2462 ft 183 kts 84°
2026-04-23 23:02 23.59578 58.12908 2239 ft 176 kts 85°
2026-04-23 23:03 23.59678 58.14212 2016 ft 170 kts 85°
2026-04-23 23:03 23.59775 58.15482 1802 ft 164 kts 85°
2026-04-23 23:03 23.59870 58.16701 1600 ft 158 kts 85°
2026-04-23 23:03 23.59961 58.17867 1406 ft 152 kts 85°
2026-04-23 23:04 23.60050 58.19017 1226 ft 152 kts 85°
2026-04-23 23:04 23.60140 58.20168 1043 ft 152 kts 85°
2026-04-23 23:04 23.60230 58.21309 847 ft 151 kts 85°
2026-04-23 23:04 23.60325 58.22460 644 ft 150 kts 85°
2026-04-23 23:05 23.60416 58.23587 452 ft 150 kts 85°
2026-04-23 23:05 23.60506 58.24720 269 ft 149 kts 86°
2026-04-23 23:05 23.60591 58.25840 85 ft 148 kts 85°
2026-04-23 23:05 23.60678 58.26912 49 ft 128 kts 85°
2026-04-23 23:06 23.60745 58.27718 49 ft 85 kts 84°
2026-04-23 23:06 23.60780 58.28214 48 ft 45 kts 92°
2026-04-23 23:06 23.60734 58.28413 48 ft 13 kts 114°
2026-04-23 23:06 23.60694 58.28508 48 ft 14 kts 115°
2026-04-23 23:07 23.60654 58.28621 48 ft 13 kts 100°
2026-04-23 23:07 23.60653 58.28728 48 ft 15 kts 85°
2026-04-23 23:07 23.60634 58.28822 48 ft 13 kts 141°
2026-04-23 23:07 23.60534 58.28846 48 ft 16 kts 174°
2026-04-23 23:08 23.60438 58.28855 49 ft 4 kts 176°
2026-04-23 23:08 23.60406 58.28836 49 ft 7 kts 235°
2026-04-23 23:08 23.60392 58.28775 49 ft 7 kts 263°
2026-04-23 23:08 23.60391 58.28755 49 ft 0 kts 265°